Wind_Speed
22 22 23 23 22 22 22 21 20 20 19 18 17 16 15 13 12 11 10 9 8 7 7 6 6 6 5 4 3 3 2 2 1 1 1 1 2 3 5 6 7 7 8
25 25 25 25 25 24 24 23 22 21 21 21 20 18 17 16 14 13 12 11 10 9 9 8 7 7 6 6 5 4 3 3 2 2 2 2 3 3 4 5 6 7 8
28 28 27 27 27 27 26 25 24 23 22 22 21 21 20 18 17 15 14 13 12 11 11 10 9 8 8 7 7 6 5 4 4 3 3 3 4 4 5 5 6 8 9
31 31 30 29 29 29 28 28 27 26 24 23 22 22 21 20 20 18 17 15 14 13 12 12 11 10 9 9 8 8 7 6 5 5 5 5 5 5 6 6 7 8 9
34 33 33 32 31 31 30 30 29 28 27 25 24 23 22 21 21 20 19 18 17 15 14 13 13 12 12 11 10 9 9 8 7 7 7 7 7 7 7 7 8 8 9
37 36 36 35 34 33 32 32 31 30 29 28 26 25 24 23 22 22 21 20 19 18 17 15 15 14 14 13 12 11 10 10 9 9 8 8 8 8 8 8 9 9 9
40 39 38 37 36 35 34 34 33 32 31 29 28 26 26 25 24 23 23 22 20 20 19 18 17 16 15 14 14 13 12 11 11 11 10 10 9 9 9 9 9 10 10
42 42 41 40 39 38 37 36 35 34 32 31 30 29 27 27 26 25 24 24 23 21 21 20 19 18 17 16 16 15 14 13 13 12 12 11 11 11 10 10 10 10 11
43 43 42 42 42 41 39 38 37 36 34 33 32 31 30 29 28 27 26 25 25 24 23 22 21 20 19 18 17 17 16 15 15 14 14 13 13 12 12 12 12 12 12
43 44 43 43 43 42 42 41 40 39 37 35 34 33 32 31 30 29 28 27 26 26 25 24 23 22 21 21 19 18 18 17 17 16 16 16 15 14 14 14 14 14 14
43 44 44 44 44 44 44 44 43 41 40 38 36 35 35 33 32 31 30 29 28 28 26 26 25 24 23 23 22 20 20 19 19 18 18 17 17 17 16 16 16 16 16
44 45 45 46 46 45 45 45 45 44 42 41 39 38 37 36 34 33 32 31 30 29 29 28 27 26 25 25 24 23 22 21 20 20 20 19 19 18 18 18 18 18 17
46 46 47 48 47 47 47 47 46 45 44 43 41 40 40 39 36 35 34 33 32 31 30 29 28 28 27 27 26 25 24 23 22 21 21 21 20 20 20 20 19 19 19
47 46 47 48 48 49 48 48 47 46 45 45 44 42 42 41 39 38 36 35 33 33 32 31 31 30 29 28 28 27 26 25 24 23 23 22 22 22 22 22 21 21 21
47 47 46 47 48 49 49 49 48 47 46 46 45 45 44 43 42 40 39 37 36 34 33 33 33 32 32 31 30 29 28 27 26 26 25 24 24 24 24 24 23 23 23
45 46 47 47 48 49 50 50 49 48 47 47 46 45 44 43 43 42 41 40 38 37 36 35 34 34 34 33 32 31 30 30 29 28 27 27 26 26 25 25 25 25 25
43 44 46 47 48 49 49 49 49 48 48 48 48 47 46 45 44 43 43 42 41 40 39 38 37 36 35 35 34 34 33 32 31 31 30 29 28 28 28 27 27 27 27
40 42 43 45 47 48 50 49 49 49 48 49 48 48 47 47 46 46 44 43 43 42 41 39 39 38 37 37 37 36 35 35 34 33 32 31 31 30 30 30 29 29 29
38 39 41 44 47 47 48 50 50 50 50 50 49 49 49 47 47 46 46 46 45 44 42 41 40 40 39 38 38 38 38 38 37 36 35 34 34 33 32 32 32 31 31
35 37 39 43 47 48 48 50 50 51 52 51 51 50 51 49 48 48 48 47 46 46 44 43 42 41 41 40 41 41 40 40 39 38 38 37 36 36 35 34 34 34 34
33 34 36 40 44 47 47 48 49 50 51 51 51 51 51 50 50 50 50 49 48 47 46 45 43 43 42 42 44 43 42 41 40 39 39 39 39 38 38 37 37 36 36
30 32 33 35 38 42 44 45 45 45 48 50 50 50 50 51 51 51 50 50 50 49 49 47 45 44 43 43 43 43 44 44 42 42 42 42 41 41 41 40 40 39 39
27 28 30 32 34 37 40 43 44 44 46 48 49 49 49 51 52 51 50 50 50 50 50 48 47 45 44 44 43 44 45 46 45 45 45 45 45 44 44 43 42 42 41
24 26 27 29 31 35 38 39 42 44 46 46 47 48 48 49 50 50 49 50 50 50 49 49 49 47 45 45 45 45 46 48 48 47 47 47 48 48 46 46 45 45 44
24 25 26 27 29 32 35 36 38 40 42 44 44 45 47 47 48 48 49 49 49 49 49 50 50 49 49 49 49 48 48 48 49 49 48 47 48 48 48 48 48 47 47
22 23 24 26 27 28 31 34 36 37 39 41 42 42 44 45 47 46 47 48 47 48 49 49 49 50 50 50 49 49 49 49 50 51 51 49 49 49 50 51 50 49 49
Wind_Direction
248 248 248 249 250 250 252 253 253 253 253 252 252 252 252 252 253 255 255 255 253 249 243 237 232 229 225 225 228 228 231 226 230 246 293 321 331 343 349 353 357 358 358
251 249 248 249 249 249 250 252 253 252 252 252 252 252 252 252 252 254 255 255 254 252 248 243 240 238 235 234 234 234 239 244 245 258 284 301 310 319 330 338 344 346 348
252 250 248 247 248 248 249 250 251 252 251 251 251 251 251 252 252 253 254 255 255 254 252 248 245 243 241 240 240 238 241 249 254 260 273 287 297 305 313 323 331 336 341
252 251 249 248 247 247 248 248 249 250 250 250 250 251 250 251 252 252 253 255 256 256 255 253 250 247 246 245 244 243 244 249 255 260 269 278 286 294 303 310 320 328 333
252 251 250 248 248 247 246 247 247 248 248 249 250 250 250 250 251 251 251 252 254 255 255 255 253 251 249 248 248 248 249 250 253 259 267 274 279 285 292 300 310 318 323
251 250 250 249 249 247 246 245 246 247 247 248 249 249 249 249 250 252 250 251 252 253 255 255 255 254 251 250 249 250 251 252 253 258 264 270 276 280 285 293 302 308 314
250 249 249 249 248 247 246 245 245 246 247 247 248 249 249 250 250 251 250 250 251 252 253 254 254 254 254 252 251 251 252 254 255 259 263 268 273 277 281 287 294 300 307
250 249 248 248 248 246 245 245 244 245 246 247 247 247 248 248 249 249 251 250 250 251 252 253 253 254 254 254 253 252 253 255 258 260 264 267 269 274 278 283 288 294 301
250 249 249 248 247 245 244 244 244 244 245 246 247 247 247 248 248 249 250 251 251 251 251 252 252 253 254 255 256 255 254 255 258 260 263 267 269 272 276 280 285 290 296
249 248 248 247 246 245 244 243 244 244 244 245 247 247 246 247 248 249 249 251 252 251 250 251 252 252 254 255 256 257 257 257 258 260 263 266 267 270 274 278 282 287 293
249 249 247 246 245 244 243 243 243 243 244 245 246 247 247 247 248 249 249 249 251 252 252 251 251 252 253 255 256 257 258 258 259 260 262 265 267 269 272 276 280 284 288
250 250 247 245 243 242 242 242 242 243 244 244 245 246 247 247 247 249 249 250 250 251 252 252 251 251 252 254 255 256 257 259 260 261 263 265 267 269 271 274 278 281 285
252 251 247 244 243 242 242 241 242 242 243 244 245 246 247 247 246 248 249 250 251 251 252 252 252 252 252 253 255 256 257 258 260 262 263 265 267 269 270 273 276 280 283
252 251 247 243 243 242 241 241 241 242 242 243 245 246 246 247 247 247 248 249 251 252 252 252 252 252 252 253 254 255 257 258 259 261 264 265 267 269 270 272 274 278 281
252 250 248 244 243 242 241 241 242 242 243 243 244 245 245 245 246 246 247 248 249 250 251 252 252 252 253 253 253 255 256 258 259 261 263 265 267 269 270 271 273 276 279
252 249 247 244 242 240 240 240 240 240 242 242 242 243 245 245 246 246 246 248 249 249 250 251 253 253 253 253 253 254 256 258 259 261 262 264 266 268 269 270 273 276 278
252 250 247 244 241 239 238 239 239 240 241 241 242 243 244 245 246 246 247 248 248 248 249 251 253 254 254 253 254 254 255 257 259 260 261 263 265 267 268 270 272 275 277
254 250 247 243 241 239 239 239 239 240 240 241 241 243 244 244 245 245 246 248 248 249 250 251 254 254 254 254 254 255 256 256 258 259 260 262 264 266 267 269 272 273 276
254 251 248 244 241 240 240 239 239 239 239 240 241 242 243 243 244 244 245 246 247 249 250 251 253 254 254 254 255 255 256 257 258 258 260 261 263 264 266 268 270 273 275
253 251 249 246 242 241 240 239 239 239 239 240 241 242 243 243 243 244 245 246 246 248 249 251 253 253 254 254 255 256 256 258 258 259 260 261 263 264 265 267 269 271 274
254 251 250 248 244 242 241 240 240 239 238 239 241 242 243 243 244 244 245 246 246 247 249 251 252 254 256 256 256 257 257 258 258 258 260 261 262 263 264 266 268 270 271
256 252 251 248 245 243 241 239 240 240 239 239 240 242 242 241 243 244 244 246 247 249 249 250 252 254 256 257 257 256 257 258 259 260 260 260 261 263 264 265 266 269 270
257 252 250 250 247 244 241 239 239 239 238 239 240 242 242 242 244 244 243 244 245 248 249 249 250 253 255 256 257 259 259 259 259 258 259 260 260 262 264 265 266 268 269
261 258 254 251 248 246 243 241 240 238 238 238 241 242 242 243 243 243 244 244 246 247 249 250 251 252 253 256 258 259 260 259 258 258 259 260 261 262 263 265 266 268 268
264 262 257 253 250 247 244 243 241 239 239 239 241 242 241 241 242 244 243 244 247 248 250 251 252 252 253 256 258 260 261 261 260 260 260 260 261 263 264 264 265 267 267
265 262 259 255 250 247 245 243 243 242 242 242 242 243 242 241 242 245 245 245 247 248 250 251 251 252 253 256 257 259 260 262 261 261 262 262 262 262 263 264 265 265 266
Height
5853 5854 5856 5857 5858 5860 5861 5863 5864 5866 5867 5868 5869 5870 5871 5872 5873 5874 5874 5875 5875 5876 5876 5876 5877 5877 5877 5877 5878 5878 5878 5878 5878 5878 5879 5879 5879 5879 5879 5878 5878 5877 5877
5848 5850 5852 5853 5855 5856 5858 5859 5861 5862 5864 5865 5867 5868 5869 5870 5871 5872 5873 5873 5874 5875 5875 5875 5876 5876 5876 5877 5877 5877 5878 5878 5878 5878 5878 5878 5878 5878 5878 5878 5878 5877 5876
5843 5845 5847 5849 5851 5852 5854 5855 5857 5859 5861 5862 5864 5865 5867 5868 5869 5870 5871 5872 5873 5873 5874 5874 5875 5875 5875 5876 5876 5876 5877 5877 5877 5877 5877 5877 5878 5878 5877 5877 5877 5876 5876
5838 5840 5842 5844 5846 5848 5849 5851 5853 5855 5857 5859 5860 5862 5864 5865 5867 5868 5869 5870 5871 5872 5872 5873 5873 5874 5874 5875 5875 5875 5876 5876 5876 5876 5876 5877 5877 5877 5876 5876 5876 5875 5875
5832 5834 5836 5839 5841 5842 5844 5846 5848 5850 5852 5854 5856 5858 5860 5862 5863 5865 5866 5867 5868 5869 5870 5871 5872 5872 5873 5873 5873 5874 5874 5875 5875 5875 5875 5875 5875 5875 5875 5875 5875 5874 5874
5825 5827 5830 5833 5835 5837 5839 5841 5843 5845 5848 5850 5852 5854 5856 5858 5860 5861 5863 5864 5865 5867 5868 5869 5869 5870 5871 5871 5872 5872 5873 5873 5873 5874 5874 5874 5874 5874 5874 5874 5873 5873 5872
5817 5820 5823 5826 5828 5831 5833 5836 5838 5840 5843 5845 5848 5850 5852 5854 5856 5858 5859 5861 5862 5863 5865 5866 5867 5868 5868 5869 5869 5870 5871 5871 5872 5872 5872 5872 5872 5872 5872 5872 5871 5871 5870
5809 5812 5815 5818 5821 5824 5827 5830 5832 5835 5838 5840 5843 5845 5847 5849 5852 5853 5855 5857 5858 5860 5861 5863 5864 5865 5866 5866 5867 5868 5868 5869 5870 5870 5870 5870 5870 5870 5870 5870 5869 5869 5868
5800 5803 5807 5810 5813 5817 5820 5823 5826 5829 5832 5835 5837 5840 5842 5845 5847 5849 5851 5853 5854 5856 5858 5859 5860 5861 5862 5863 5864 5865 5866 5866 5867 5867 5868 5868 5868 5868 5868 5867 5867 5867 5866
5791 5794 5797 5801 5804 5808 5812 5816 5819 5823 5826 5829 5832 5834 5837 5839 5841 5844 5846 5848 5850 5852 5853 5855 5856 5858 5859 5860 5861 5862 5863 5863 5864 5865 5865 5865 5865 5865 5865 5865 5865 5864 5864
5782 5785 5788 5792 5795 5800 5804 5808 5812 5815 5819 5822 5825 5828 5831 5834 5836 5838 5840 5843 5845 5847 5849 5851 5852 5854 5855 5856 5857 5858 5859 5860 5861 5861 5862 5862 5862 5862 5862 5862 5862 5861 5861
5772 5775 5778 5782 5786 5790 5795 5799 5803 5807 5811 5815 5819 5822 5825 5827 5830 5833 5835 5837 5840 5842 5844 5846 5848 5849 5851 5852 5853 5854 5855 5856 5857 5858 5858 5858 5859 5859 5859 5859 5858 5858 5858
5762 5765 5768 5772 5776 5781 5786 5790 5795 5799 5804 5808 5812 5815 5818 5821 5824 5827 5829 5832 5834 5836 5839 5841 5843 5844 5846 5847 5848 5850 5851 5852 5853 5854 5854 5855 5855 5855 5855 5855 5855 5855 5854
5751 5754 5757 5762 5767 5771 5776 5781 5786 5791 5795 5800 5804 5808 5811 5814 5817 5820 5823 5826 5828 5831 5833 5835 5837 5839 5841 5842 5843 5845 5846 5847 5848 5849 5850 5850 5851 5851 5851 5851 5851 5851 5850
5740 5744 5747 5752 5757 5761 5765 5771 5777 5782 5786 5791 5795 5799 5802 5806 5810 5813 5816 5819 5822 5824 5827 5829 5831 5833 5835 5836 5838 5839 5841 5842 5843 5844 5845 5845 5846 5846 5846 5846 5846 5846 5846
5729 5733 5736 5741 5746 5751 5756 5761 5767 5772 5777 5782 5786 5790 5794 5798 5802 5806 5809 5812 5815 5817 5820 5822 5824 5826 5828 5830 5832 5834 5835 5836 5837 5839 5840 5840 5841 5841 5841 5842 5842 5841 5841
5719 5722 5726 5730 5735 5740 5746 5751 5757 5763 5768 5772 5777 5781 5785 5789 5794 5798 5801 5804 5807 5810 5813 5815 5817 5820 5822 5824 5825 5827 5829 5830 5831 5832 5834 5834 5835 5835 5836 5836 5836 5836 5836
5709 5711 5715 5719 5724 5729 5735 5741 5747 5753 5758 5762 5767 5772 5776 5780 5785 5789 5792 5796 5799 5802 5805 5808 5810 5812 5814 5816 5818 5820 5822 5823 5824 5826 5827 5828 5829 5829 5830 5830 5830 5830 5830
5700 5702 5705 5709 5714 5719 5724 5730 5736 5742 5747 5753 5758 5762 5767 5771 5775 5779 5783 5787 5790 5793 5796 5799 5802 5805 5807 5809 5811 5812 5814 5816 5817 5818 5820 5821 5822 5823 5823 5823 5824 5824 5824
5691 5693 5696 5700 5704 5708 5713 5719 5724 5730 5736 5742 5747 5752 5756 5761 5765 5769 5774 5777 5781 5784 5788 5791 5794 5796 5798 5800 5802 5804 5806 5808 5809 5811 5812 5813 5814 5815 5816 5816 5816 5817 5817
5684 5686 5688 5691 5695 5698 5703 5708 5713 5719 5725 5731 5736 5741 5745 5750 5755 5759 5764 5768 5771 5775 5778 5782 5785 5787 5789 5791 5793 5795 5798 5799 5801 5802 5804 5805 5806 5807 5807 5808 5808 5809 5809
5677 5678 5680 5683 5686 5689 5694 5699 5704 5708 5714 5720 5725 5729 5734 5739 5744 5749 5753 5757 5761 5765 5768 5771 5775 5778 5780 5782 5784 5786 5788 5790 5792 5794 5795 5796 5797 5798 5799 5799 5800 5800 5800
5671 5672 5674 5676 5678 5681 5685 5689 5693 5698 5703 5709 5714 5718 5723 5728 5733 5738 5742 5747 5750 5754 5757 5761 5765 5767 5770 5772 5774 5776 5777 5780 5782 5784 5785 5786 5787 5788 5789 5789 5790 5791 5791
5666 5666 5667 5668 5671 5673 5676 5680 5684 5689 5694 5699 5703 5707 5712 5716 5722 5727 5731 5736 5740 5743 5747 5750 5754 5757 5759 5762 5763 5765 5767 5769 5770 5773 5775 5775 5776 5777 5778 5779 5780 5780 5780
5660 5660 5661 5662 5664 5666 5668 5671 5675 5679 5684 5688 5692 5696 5700 5705 5710 5715 5720 5725 5728 5732 5736 5739 5742 5745 5748 5751 5752 5754 5756 5757 5758 5760 5762 5764 5765 5766 5767 5767 5768 5769 5769
5656 5655 5656 5656 5656 5658 5660 5663 5666 5670 5674 5678 5681 5685 5690 5694 5700 5704 5709 5713 5717 5721 5724 5728 5731 5734 5736 5738 5740 5742 5744 5745 5747 5748 5749 5751 5752 5754 5754 5755 5756 5757 5757